Location: Newark
(49.8348°N, 24.0280°E)
Time: 03:55:32
(UTC+00:00)

Transit 2A - Pass Details

Date: 28 January 2020
Orbit: 600 x 959 km, 66.7° (Epoch: 17 February)

Event Time Altitude Azimuth Distance (km) Brightness Sun altitude
Rises 16:11:32 0° 158° (SSE) 2,882 8.9 -9.9°
Reaches altitude 10° 16:15:25 10° 123° (ESE) 1,950 7.7 -10.5°
Maximum altitude 16:16:41 11° 106° (ESE) 1,871 7.5 -10.7°
Enters shadow 16:16:53 11° 103° (ESE) 1,873 7.5 -10.7°
Drops below altitude 10° 16:17:58 10° 89° (E) 1,946 - -10.9°
Sets 16:21:49 0° 54° (NE) 2,863 - -11.5°
